Details From LFMN - Nice/Cote d'Azur
To LIMJ - Genova Sestri
Flight Number -
Tags decoded
Created
Modified
Stats Distance 89 nm / 165 km
Max Altitude 0 ft / 0 m
Waypoints 5
Social Downloads 6
Likes 0
Share

Download

Looking for another format? Having issues loading an existing format? Contact us
Advertisement - Login to hide

Notes

Requested: LFMN NIZ KEPPO ABN DORAV LIMJ Unmatched points: KEPPO

Route

LFMN NIZ ABN DORAV LIMJ

ID Type Via Altitude (ft/m) Position (lat/lon) Dist (leg/tot) Name
O LFMN APT - 0 / 0 43.65798 / 7.21536 - / 0 nm Nice/Cote d'Azur
NIZ VOR - 0 / 0 43.77064 / 7.25439 6 / 6 nm NICE COTE D AZUR VOR-DME
ABN NDB - 0 / 0 44.05583 / 8.22111 45 / 52 nm ALBENGA NDB
DORAV FIX - 0 / 0 44.32639 / 8.85222 31 / 83 nm
O LIMJ APT - 0 / 0 44.41196 / 8.84187 5 / 88 nm Genova Sestri

Altitude Profile

Advertisement - Login to hide

LFMN

Details ICAO LFMN (NCE)
Name Nice-Cote d'Azur
Region France
Timezone Unknown
Stats Elevation 12 ft / 4 m (AMSL)
Location 43.658400° 7.215760°
Runways 2
Magnetic Variation 2.423° E

METAR

LFMN 241130Z 10011KT 9999 FEW016 BKN160 27/22 Q1012 NOSIG

Decode

TAF

TAF LFMN 240800Z 2409/2515 11006KT 9999 FEW015 PROB40 TEMPO 2409/2418 FEW060TCU BECMG 2500/2502 34010KT BECMG 2509/2511 20010KT

Decode

Departure Runways

ID Width Length Bearing (true/mag) Surface Threshold Overrun Markings Lighting
04L 148 ft / 45 m 8,992 ft / 2,741 m 44.86° / 42.44° ASPHALT 0 ft / 0 m 161 ft / 49 m PREC-APP CENTERLINE EDGE THRESHOLD REIL-OMNI
04R 148 ft / 45 m 9,706 ft / 2,958 m 44.86° / 42.44° ASPHALT 0 ft / 0 m 417 ft / 127 m PREC-APP CENTERLINE EDGE THRESHOLD REIL-OMNI
22L 148 ft / 45 m 9,706 ft / 2,958 m 224.88° / 222.46° ASPHALT 0 ft / 0 m 525 ft / 160 m PREC-APP CENTERLINE EDGE THRESHOLD REIL-OMNI
22R 148 ft / 45 m 8,992 ft / 2,741 m 224.88° / 222.45° ASPHALT 564 ft / 172 m 0 ft / 0 m PREC-APP CENTERLINE EDGE THRESHOLD REIL-OMNI

LIMJ

Details ICAO LIMJ (GOA)
Name Genova-Sestri "Cristoforo Colombo"
Region Italy
Timezone Unknown
Stats Elevation 13 ft / 4 m (AMSL)
Location 44.412000° 8.841870°
Runways 1
Magnetic Variation 2.796° E

METAR

LIMJ 241120Z 13007KT 9999 SCT028 26/24 Q1013

Decode

TAF

TAF LIMJ 240500Z 2406/2506 VRB05KT 9999 SCT040 BECMG 2409/2411 15010KT BECMG 2416/2418 VRB05KT

Decode

Destination Runways

ID Width Length Bearing (true/mag) Surface Threshold Overrun Markings Lighting
10 148 ft / 45 m 9,576 ft / 2,919 m 105.34° / 102.55° ASPHALT 0 ft / 0 m 197 ft / 60 m PREC-APP CENTERLINE EDGE THRESHOLD REIL-OMNI
28 148 ft / 45 m 9,576 ft / 2,919 m 285.37° / 282.57° ASPHALT 535 ft / 163 m 0 ft / 0 m PREC-APP CENTERLINE EDGE THRESHOLD SALS REIL-OMNI

Approach Navaids

Runway Type Ident Frequency Range Bearing (true/mag) Slope Elevation
28 DME GSE 109.30 MHz 18 nm / 33 km - - 26 ft / 8 m (AMSL)
28 LOC-ILS GSE 109.30 MHz 18 nm / 33 km 285.40° / 282.61 ° - 9 ft / 3 m (AMSL)
28 GS GSE 109.30 MHz 10 nm / 19 km 285.40° / 282.61 ° 3.17° 26 ft / 8 m (AMSL)

Popular Alternatives